Location: Новосибирск
(54.9833°N, 82.8964°E)
Time: 18:35:23
(UTC+06:00)

ISS - Visible Passes

Search period start: 07 July 2020 00:00
Search period end: 17 July 2020 00:00
Orbit: 417 x 421 km, 51.6° (Epoch: 07 July)

Date Brightness Start Highest point End Pass type
(mag) Time Alt. Az. Time Alt. Az. Time Alt. Az.
07 Jul -2.4 01:59:02 16° SSW 02:00:41 23° SSE 02:03:25 10° E visible
08 Jul -2.1 01:12:51 17° SSE 01:13:15 18° SSE 01:15:35 10° ESE visible
08 Jul -3.2 02:46:19 10° WSW 02:49:30 40° SSE 02:52:42 10° E visible
09 Jul -1.6 00:26:37 12° SE 00:26:37 12° SE 00:27:32 10° ESE visible
09 Jul -3.0 01:59:32 14° SW 02:01:59 35° SSE 02:05:05 10° E visible
10 Jul -2.8 01:13:13 22° SSW 01:14:28 29° SSE 01:17:25 10° E visible
10 Jul -3.5 02:47:39 10° WSW 02:50:53 47° S 02:54:09 10° ESE visible
11 Jul -2.5 00:26:47 23° SSE 00:26:58 23° SSE 00:29:41 10° E visible
11 Jul -3.4 02:00:05 10° WSW 02:03:18 45° S 02:06:33 10° E visible
11 Jul -2.0 23:40:11 17° SE 23:40:11 17° SE 23:41:50 10° ESE visible
12 Jul -3.3 01:13:04 13° SW 01:15:45 40° SSE 01:18:56 10° E visible
12 Jul -3.4 02:49:01 10° W 02:52:14 44° S 02:55:28 10° ESE visible
12 Jul -1.6 22:53:12 12° ESE 22:53:12 12° ESE 22:53:43 10° ESE visible
13 Jul -3.2 00:26:02 17° SW 00:28:10 35° SSE 00:31:17 10° E visible
13 Jul -3.5 02:01:24 10° WSW 02:04:39 47° S 02:07:54 10° ESE visible
13 Jul -2.9 23:37:40 10° SW 23:40:37 28° SSE 23:43:34 10° E visible
14 Jul -3.6 01:13:47 10° WSW 01:17:02 47° S 01:20:18 10° ESE visible
14 Jul -3.1 02:50:26 10° W 02:53:30 33° SSW 02:56:35 10° SE visible
14 Jul -2.6 22:50:22 10° SSW 22:53:05 23° SSE 22:55:48 10° E visible
15 Jul -3.5 00:26:12 10° WSW 00:29:25 45° S 00:32:40 10° E visible
15 Jul -3.3 02:02:44 10° W 02:05:55 39° SSW 02:09:05 10° ESE visible
15 Jul -2.2 22:03:15 10° SSW 22:05:34 18° SSE 22:07:54 10° ESE visible
15 Jul -3.4 23:38:37 10° WSW 23:41:49 40° SSE 23:45:00 10° E visible
16 Jul -3.5 01:15:05 10° W 01:18:19 44° S 01:21:32 10° ESE visible
16 Jul -2.5 02:51:58 10° W 02:54:38 22° SSW 02:57:17 10° SSE visible
16 Jul -3.2 22:51:06 10° SW 22:54:12 34° SSE 22:57:18 10° E visible
